CTN344 LQSA-LYBE

Flight info

Callsign CTN344
Flight time N/A
Altitude 29000
Route SOMUN L5 ENUPU
Aircraft A319/M-SDE3FGHIRWY/LB1

Departure

Time 2026-05-01 12:30
Airport Sarajevo International Airport (LQSA)

Arrival

Time N/A
Airport Belgrade Nikola Tesla Airport (LYBE)
Time Latitude Longitude Altitude Speed Heading
2026-05-01 12:05 43.82567 18.33565 1679 ft 0 kts 28°
2026-05-01 12:22 43.82566 18.33565 1678 ft 1 kts 27°
2026-05-01 12:23 43.82547 18.33550 1687 ft 4 kts 34°
2026-05-01 12:23 43.82526 18.33526 1688 ft 4 kts 49°
2026-05-01 12:23 43.82513 18.33496 1686 ft 4 kts 85°
2026-05-01 12:23 43.82514 18.33477 1687 ft 0 kts 117°
2026-05-01 12:26 43.82507 18.33495 1682 ft 5 kts 117°
2026-05-01 12:26 43.82452 18.33643 1689 ft 8 kts 117°
2026-05-01 12:26 43.82424 18.33716 1690 ft 11 kts 117°
2026-05-01 12:27 43.82380 18.33833 1689 ft 13 kts 117°
2026-05-01 12:27 43.82307 18.34028 1694 ft 11 kts 117°
2026-05-01 12:28 43.82215 18.34274 1698 ft 19 kts 117°
2026-05-01 12:28 43.82174 18.34383 1700 ft 19 kts 117°
2026-05-01 12:28 43.82044 18.34624 1708 ft 11 kts 169°
2026-05-01 12:29 43.82039 18.34625 1708 ft 1 kts 172°
2026-05-01 12:29 43.82022 18.34625 1708 ft 8 kts 184°
2026-05-01 12:29 43.82005 18.34360 1699 ft 23 kts 297°
2026-05-01 12:30 43.82539 18.32952 1706 ft 147 kts 305°
2026-05-01 12:30 43.83000 18.31801 2503 ft 134 kts 318°
2026-05-01 12:30 43.83794 18.31259 3078 ft 127 kts 358°
2026-05-01 12:31 43.84679 18.31411 3531 ft 140 kts 25°
2026-05-01 12:31 43.85466 18.32351 3905 ft 161 kts 47°
2026-05-01 12:31 43.86245 18.33596 4382 ft 181 kts 46°
2026-05-01 12:31 43.87123 18.34998 4883 ft 202 kts 47°
2026-05-01 12:32 43.88047 18.36475 5834 ft 200 kts 47°
2026-05-01 12:32 43.89905 18.39441 7760 ft 211 kts 48°
2026-05-01 12:32 43.90874 18.40986 8735 ft 213 kts 48°
2026-05-01 12:33 43.91855 18.42547 9785 ft 216 kts 49°
2026-05-01 12:33 43.92850 18.44128 10764 ft 219 kts 48°
2026-05-01 12:33 43.93981 18.45585 11552 ft 230 kts 37°
2026-05-01 12:33 43.95350 18.46937 12032 ft 254 kts 36°
2026-05-01 12:34 43.96851 18.48395 12618 ft 270 kts 36°
2026-05-01 12:34 43.98410 18.49905 13511 ft 276 kts 36°
2026-05-01 12:34 43.99999 18.51447 14409 ft 280 kts 36°
2026-05-01 12:34 44.01607 18.53011 15243 ft 284 kts 36°
2026-05-01 12:35 44.03250 18.54616 15698 ft 303 kts 36°
2026-05-01 12:35 44.05039 18.56369 15922 ft 326 kts 36°
2026-05-01 12:35 44.06984 18.58280 16176 ft 347 kts 36°
2026-05-01 12:35 44.08951 18.60212 16792 ft 354 kts 36°
2026-05-01 12:36 44.10977 18.62202 17535 ft 358 kts 36°
2026-05-01 12:36 44.13023 18.64212 18303 ft 362 kts 36°
2026-05-01 12:36 44.15087 18.66242 18993 ft 365 kts 36°
2026-05-01 12:36 44.17172 18.68289 19641 ft 368 kts 36°
2026-05-01 12:37 44.19275 18.70352 20286 ft 372 kts 35°
2026-05-01 12:37 44.21399 18.72437 20901 ft 375 kts 36°
2026-05-01 12:37 44.23532 18.74542 21565 ft 376 kts 36°
2026-05-01 12:37 44.25670 18.76663 22197 ft 378 kts 36°
2026-05-01 12:38 44.27824 18.78797 22779 ft 381 kts 36°
2026-05-01 12:38 44.29995 18.80948 23389 ft 384 kts 36°
2026-05-01 12:38 44.32181 18.83115 23941 ft 387 kts 36°
2026-05-01 12:38 44.34387 18.85300 24406 ft 390 kts 36°
2026-05-01 12:39 44.36602 18.87499 24920 ft 391 kts 36°
2026-05-01 12:39 44.38823 18.89707 25431 ft 392 kts 37°
2026-05-01 12:39 44.41043 18.91915 26024 ft 391 kts 37°
2026-05-01 12:39 44.43261 18.94120 26548 ft 392 kts 37°
2026-05-01 12:40 44.45485 18.96330 27026 ft 393 kts 37°
2026-05-01 12:40 44.47713 18.98550 27492 ft 394 kts 37°
2026-05-01 12:40 44.49949 19.00784 27949 ft 396 kts 37°
2026-05-01 12:40 44.52194 19.03032 28371 ft 398 kts 37°
2026-05-01 12:41 44.54447 19.05291 28821 ft 399 kts 38°
2026-05-01 12:41 44.56550 19.07809 29236 ft 396 kts 47°
2026-05-01 12:41 44.59482 19.14179 29334 ft 389 kts 66°
2026-05-01 12:42 44.60538 19.21668 29337 ft 399 kts 79°
2026-05-01 12:42 44.61159 19.29452 29333 ft 403 kts 79°
2026-05-01 12:43 44.62614 19.36924 29334 ft 395 kts 62°
2026-05-01 12:43 44.65656 19.43295 29331 ft 393 kts 51°
2026-05-01 12:44 44.69030 19.49278 28884 ft 392 kts 51°
2026-05-01 12:44 44.72408 19.55313 26642 ft 393 kts 51°
2026-05-01 12:45 44.75705 19.61237 24607 ft 379 kts 51°
2026-05-01 12:45 44.77344 19.64179 23605 ft 383 kts 51°
2026-05-01 12:45 44.78993 19.67139 22476 ft 385 kts 51°
2026-05-01 12:46 44.80651 19.70117 21377 ft 388 kts 51°
2026-05-01 12:46 44.82318 19.73116 20354 ft 389 kts 51°
2026-05-01 12:46 44.83980 19.76102 19528 ft 386 kts 51°
2026-05-01 12:46 44.85609 19.79086 18731 ft 384 kts 54°
2026-05-01 12:47 44.86821 19.82429 17875 ft 384 kts 68°
2026-05-01 12:47 44.87392 19.86105 17044 ft 387 kts 82°
2026-05-01 12:47 44.87278 19.89908 16201 ft 392 kts 96°
2026-05-01 12:47 44.86453 19.93600 15382 ft 399 kts 111°
2026-05-01 12:48 44.85052 19.96996 14573 ft 402 kts 118°
2026-05-01 12:48 44.83573 20.00342 13738 ft 402 kts 118°
2026-05-01 12:48 44.82101 20.03671 12947 ft 396 kts 118°
2026-05-01 12:48 44.80666 20.06913 12192 ft 384 kts 118°
2026-05-01 12:49 44.79276 20.10056 11508 ft 372 kts 118°
2026-05-01 12:49 44.77957 20.13037 11350 ft 346 kts 118°
2026-05-01 12:49 44.76728 20.15814 11229 ft 323 kts 118°
2026-05-01 12:49 44.75576 20.18414 11101 ft 304 kts 117°
2026-05-01 12:50 44.74486 20.20871 10858 ft 291 kts 117°
2026-05-01 12:50 44.73429 20.23257 10583 ft 286 kts 117°
2026-05-01 12:50 44.72385 20.25621 10338 ft 284 kts 117°
2026-05-01 12:50 44.71359 20.27947 10084 ft 283 kts 117°
2026-05-01 12:51 44.70323 20.30296 9880 ft 285 kts 117°
2026-05-01 12:51 44.69205 20.32866 9829 ft 331 kts 117°
2026-05-01 12:51 44.66600 20.39091 9679 ft 401 kts 117°
2026-05-01 12:52 44.65417 20.41983 10245 ft 407 kts 116°
2026-05-01 12:52 44.62608 20.48749 12517 ft 394 kts 118°
2026-05-01 12:52 44.61147 20.52169 12289 ft 423 kts 118°
2026-05-01 12:53 44.58242 20.59070 14387 ft 406 kts 117°